Tampa, FL

10:50 AM EDT on March 27, 2017 (GMT -0400)
Tampa International

Weather History for KTPA - May, 2013

Change the Weather History Date:

Friday, May 24, 2013

  Actual Average Record
Temperature  
Mean Temperature 85 °F 80 °F  
Max Temperature 94 °F 89 °F 96 °F (2012)
Min Temperature 75 °F 72 °F 60 °F (1892)
Degree Days  
Heating Degree Days 0 0  
Month to date heating degree days 0 0  
Since 1 July heating degree days 400 538  
Cooling Degree Days 20 15  
Month to date cooling degree days 284 308  
Year to date cooling degree days 862 768  
Growing Degree Days 34 (Base 50)    
Moisture  
Dew Point 68 °F    
Average Humidity 61    
Maximum Humidity 87    
Minimum Humidity 34    
Precipitation  
Precipitation 0.00 in 0.08 in 2.57 in (1979)
Month to date precipitation 1.85 1.43  
Year to date precipitation 9.12 11.53  
Sea Level Pressure  
Sea Level Pressure 30.04 in    
Wind  
Wind Speed 8 mph (NW)    
Max Wind Speed 17 mph    
Max Gust Speed 23 mph    
Visibility 10 miles    
Events      
T = Trace of Precipitation, MM = Missing Value Source: NWS Daily Summary

Daily Weather History Graph

Daily Weather History Graph

Search for Another Location

Airport or City:

Trip Planner

Search our weather history database for the weather conditions in past years. The results will help you decide how hot, cold, wet, or windy it might be!

Date:

Astronomy

May. 24, 2013 Rise Set
Actual Time 6:36 AM EDT 8:18 PM EDT
Civil Twilight 6:10 AM EDT 8:44 PM EDT
Nautical Twilight 5:38 AM EDT 9:15 PM EDT
Astronomical Twilight 5:06 AM EDT 9:48 PM EDT
Moon 8:01 PM EDT (5/24) 6:03 AM EDT (5/24)
Length of Visible Light 14h 33m
Length of Day
13h 41m
Full, 100% of the Moon is Illuminated
May 24
Full
May 25
Full
May 31
Last Quarter
Jun 8
New
Jun 16
First Quarter

Hourly Weather History & Observations

Time (EDT) Temp. Heat Index Dew Point Humidity Pressure Visibility Wind Dir Wind Speed Gust Speed Precip Events Conditions
12:53 AM 75.9 °F - 72.0 °F 87% 30.02 in 10.0 mi NW 3.5 mph - N/A   Clear
1:53 AM 75.9 °F - 72.0 °F 87% 30.02 in 10.0 mi NNW 3.5 mph - N/A   Clear
2:53 AM 75.9 °F - 71.1 °F 85% 30.00 in 10.0 mi WNW 3.5 mph - N/A   Clear
3:53 AM 75.9 °F - 71.1 °F 85% 30.00 in 10.0 mi Calm Calm - N/A   Clear
4:53 AM 75.9 °F - 71.1 °F 85% 30.00 in 10.0 mi WNW 3.5 mph - N/A   Partly Cloudy
5:53 AM 75.0 °F - 72.0 °F 90% 30.01 in 10.0 mi NW 3.5 mph - N/A   Partly Cloudy
6:53 AM 75.0 °F - 71.1 °F 87% 30.03 in 10.0 mi NW 3.5 mph - N/A   Partly Cloudy
7:53 AM 77.0 °F - 72.0 °F 84% 30.05 in 10.0 mi NW 5.8 mph - N/A   Scattered Clouds
8:53 AM 80.1 °F 84.2 °F 73.0 °F 79% 30.05 in 10.0 mi NNW 8.1 mph - N/A   Mostly Cloudy
9:09 AM 80.6 °F 85.4 °F 73.4 °F 79% 30.06 in 10.0 mi NW 6.9 mph - N/A   Mostly Cloudy
9:19 AM 82.4 °F 88.2 °F 73.4 °F 74% 30.07 in 10.0 mi NNW 8.1 mph - N/A   Mostly Cloudy
9:43 AM 80.6 °F 85.4 °F 73.4 °F 79% 30.06 in 10.0 mi NW 4.6 mph - N/A   Scattered Clouds
9:53 AM 82.9 °F 88.8 °F 73.0 °F 72% 30.06 in 10.0 mi North 5.8 mph - N/A   Scattered Clouds
10:53 AM 84.0 °F 90.2 °F 73.0 °F 69% 30.06 in 10.0 mi WSW 9.2 mph - N/A   Scattered Clouds
11:53 AM 89.1 °F 94.1 °F 70.0 °F 53% 30.06 in 10.0 mi NNW 9.2 mph - N/A   Scattered Clouds
12:53 PM 91.9 °F 93.3 °F 64.0 °F 39% 30.06 in 10.0 mi NNW 8.1 mph - N/A   Scattered Clouds
1:53 PM 91.9 °F 92.9 °F 63.0 °F 38% 30.05 in 10.0 mi NW 8.1 mph - N/A   Scattered Clouds
2:53 PM 93.0 °F 94.6 °F 64.0 °F 38% 30.05 in 10.0 mi WNW 15.0 mph 18.4 mph N/A   Scattered Clouds
3:53 PM 91.9 °F 91.5 °F 60.1 °F 34% 30.04 in 10.0 mi NNW 12.7 mph - N/A   Scattered Clouds
4:53 PM 91.0 °F 90.2 °F 59.0 °F 34% 30.04 in 10.0 mi NW 13.8 mph - N/A   Mostly Cloudy
5:53 PM 90.0 °F 90.0 °F 61.0 °F 38% 30.04 in 10.0 mi NNW 16.1 mph 20.7 mph N/A   Mostly Cloudy
6:53 PM 87.1 °F 87.0 °F 61.0 °F 41% 30.04 in 10.0 mi NNW 15.0 mph - N/A   Mostly Cloudy
7:53 PM 84.9 °F 85.0 °F 61.0 °F 44% 30.04 in 10.0 mi NW 6.9 mph - N/A   Mostly Cloudy
8:53 PM 81.0 °F 82.2 °F 63.0 °F 54% 30.05 in 10.0 mi NW 6.9 mph - N/A   Scattered Clouds
9:53 PM 80.1 °F 81.9 °F 64.9 °F 60% 30.06 in 10.0 mi NW 4.6 mph - N/A   Partly Cloudy
10:53 PM 79.0 °F - 66.9 °F 66% 30.08 in 10.0 mi NW 4.6 mph - N/A   Partly Cloudy
11:53 PM 78.1 °F - 66.9 °F 68% 30.09 in 10.0 mi NW 5.8 mph - N/A   Partly Cloudy